Home   Weather   Danmarkshavn   Past weeks

Flag for Greenland Past Weather in Danmarkshavn, Greenland — Yesterday and Last 2 Weeks

Now
5 °F

Light snow. Low clouds.


Feels Like: 5 °F
Forecast: 1 / 8 °F
Wind: 2 mph from Southeast

Location: Danmarkshavn

Current Time: Apr 27, 2017 at 7:31:12 am

Latest Report: Apr 27, 2017 at 6:00 am


Visibility: 0 mi

Pressure: 29.78 "Hg

Humidity: 82%

Dew Point: 1 °F

Location of DanmarkshavnLocation

Past Weather in Danmarkshavn — Graph

°F

Danmarkshavn Temperature Yesterday

Maximum temperature yesterday: 9 °F (at 5:00 pm)
Minimum temperature yesterday: 0 °F (at 8:00 am)
Average temperature yesterday: 3 °F

High & Low Weather Summary for the Past Weeks

 TemperatureHumidityPressure
High22 °F (Apr 13, 3:00 pm)86% (Apr 13, 1:00 pm)30.52 "Hg (Apr 13, 1:00 pm)
Low-28 °F (Apr 17, 6:00 am)49% (Apr 24, 11:00 am)29.78 "Hg (Apr 27, 6:00 am)
Average-1 °F68%30.28 "Hg
* Reported Apr 12 6:00 am — Apr 27 6:00 am, Danmarkshavn, Weather by CustomWeather, © 2017

Note: Actual official high and low records may vary slightly from our data, if they occured in-between our weather recording intervals... More about our weather records

Advertising

Danmarkshavn Weather History for the Previous 24 Hours

Scroll right to see more
 ConditionsComfort  
Time TempWeatherWind HumidityBarometerVisibility
6:00 am
Thu, Apr 27
5 °FLight snow. Low clouds.2 mph82%29.78 "Hg1 mi
5:00 am6 °FLight snow. Low clouds.10 mph82%29.80 "Hg1 mi
4:00 am6 °FSnow flurries. Low clouds.13 mph83%29.81 "Hg1 mi
3:00 am5 °FLight snow. Low clouds.13 mph83%29.83 "Hg1 mi
2:00 am4 °FSnow flurries. Overcast.15 mph80%29.85 "Hg18 mi
1:00 am3 °FSunny.15 mph81%29.86 "Hg31 mi
12:00 am1 °FSunny.13 mph80%29.88 "Hg31 mi
11:00 pm
Wed, Apr 26
1 °FSunny.13 mph80%29.89 "Hg31 mi
10:00 pm2 °FSnow flurries. Sunny.15 mph80%29.90 "Hg22 mi
9:00 pm1 °FSunny.8 mph79%29.94 "Hg31 mi
8:00 pm1 °FSunny.7 mph78%29.94 "Hg31 mi
7:00 pm4 °FSunny.3 mph79%29.96 "Hg25 mi
6:00 pm6 °FSunny.1 mph80%29.96 "Hg25 mi
5:00 pm9 °FSunny.1 mph82%29.96 "Hg25 mi
4:00 pm5 °FSunny.5 mph79%29.97 "Hg31 mi
3:00 pm4 °FSunny.6 mph78%29.97 "Hg25 mi
2:00 pm6 °FSunny.9 mph79%29.97 "Hg22 mi
1:00 pm4 °FPassing clouds.10 mph79%29.98 "Hg22 mi
12:00 pm2 °FPassing clouds.12 mph78%29.98 "Hg1 mi
11:00 am1 °FPassing clouds.13 mph77%29.99 "Hg2 mi
10:00 am1 °FSnow flurries. Scattered clouds.12 mph77%29.99 "Hg1 mi
9:00 am0 °FIce fog.16 mph78%29.99 "Hg1 mi
8:00 am0 °FPartly sunny.16 mph78%29.98 "Hg1 mi
7:00 am1 °FIce fog.15 mph78%29.98 "Hg1 mi
Weather by CustomWeather, © 2017

See weather overviewHow to use our weather pages